Flag for U.S.A. Weather past 2 weeks in Duluth, Minnesota, U.S.A.

Now
43 °F

Sunny.


Feels Like: 43 °F
Forecast: 36 / 55 °F
Wind: No wind

Location: Sky Harbor Airport


UV Index: 3 (Moderate)

Visibility: 10 mi


Pressure: 29.87 "Hg

Humidity: 76%

Dew point: 36 °F

Location of DuluthLocation

Historic Weather in Duluth

°F

Duluth temperature yesterday

Maximum temperature yesterday: 46 °F (at 11:34 AM)
Minimum temperature yesterday: 28 °F (at 2:54 AM)
Average temperature yesterday: 36 °F

Past Weeks' High & Low Weather Summary

 TemperatureHumidityPressure
High57 °F (Apr 9, 5:33 PM)100% (Apr 7, 3:13 AM)30.43 "Hg (Apr 7, 3:13 AM)
Low18 °F (Apr 15, 5:34 AM)21% (Apr 15, 3:53 PM)29.37 "Hg (Apr 9, 9:54 PM)
Average35 °F73%29.98 "Hg
* Reported Apr 6 8:13 AM — Apr 21 8:33 AM, Duluth, Weather by CustomWeather, © 2014

Note: Actual official high and low records may vary slightly from our data, if they occured in-between our weather recording intervals... More about our weather records

Advertising

Historic Weather Conditions — Data for Previous 24 hours

 ConditionsComfort  
Time TempWeatherWind HumidityBarometerVisibility
8:33 AM
Apr 21
39 °FSunny.No wind81%29.88 "Hg10 mi
8:14 AM39 °FSunny.No wind81%29.88 "Hg10 mi
7:53 AM39 °FSunny.No wind81%29.88 "Hg10 mi
7:33 AM37 °FSunny.No wind87%29.88 "Hg10 mi
7:14 AM37 °FSunny.No wind87%29.89 "Hg10 mi
6:53 AM36 °FPassing clouds.No wind87%29.89 "Hg10 mi
6:33 AM36 °FPassing clouds.No wind87%29.90 "Hg10 mi
6:14 AM36 °FOvercast.No wind87%29.91 "Hg10 mi
5:53 AM36 °FPassing clouds.No wind87%29.92 "Hg10 mi
5:33 AM34 °FPassing clouds.No wind87%29.91 "Hg7 mi
5:14 AM34 °FPassing clouds.No wind87%29.90 "Hg7 mi
4:53 AM32 °FPassing clouds.No wind93%29.90 "Hg7 mi
4:33 AM30 °FClear.No wind93%29.90 "Hg7 mi
4:14 AM32 °FClear.No wind93%29.90 "Hg7 mi
3:53 AM32 °FClear.No wind87%29.90 "Hg7 mi
3:33 AM34 °FClear.No wind87%29.91 "Hg10 mi
3:14 AM34 °FClear.No wind87%29.91 "Hg10 mi
2:54 AM34 °FClear.No wind87%29.92 "Hg10 mi
2:33 AM34 °FClear.No wind87%29.93 "Hg10 mi
2:14 AM34 °FClear.No wind87%29.94 "Hg10 mi
1:53 AM34 °FClear.No wind87%29.94 "Hg10 mi
1:33 AM36 °FClear.No wind87%29.95 "Hg10 mi
1:14 AM34 °FClear.No wind87%29.96 "Hg10 mi
12:54 AM34 °FClear.No wind87%29.96 "Hg10 mi
12:33 AM36 °FClear.No wind87%29.97 "Hg10 mi
11:54 PM
Apr 20
36 °FClear.No wind87%29.98 "Hg10 mi
11:33 PM36 °FClear.No wind87%29.97 "Hg10 mi
11:14 PM36 °FClear.No wind87%29.97 "Hg10 mi
10:53 PM34 °FClear.No wind87%29.98 "Hg10 mi
10:14 PM36 °FClear.No wind87%29.99 "Hg10 mi
9:33 PM36 °FClear.No wind87%29.99 "Hg10 mi
9:14 PM36 °FClear.No wind87%29.99 "Hg10 mi
8:53 PM37 °FSunny.No wind87%29.99 "Hg10 mi
8:33 PM37 °FSunny.No wind87%29.99 "Hg10 mi
8:14 PM37 °FSunny.No wind87%29.99 "Hg10 mi
7:53 PM39 °FSunny.No wind81%29.99 "Hg10 mi
7:34 PM39 °FSunny.No wind81%29.99 "Hg10 mi
7:13 PM43 °FSunny.No wind76%29.99 "Hg10 mi
6:53 PM43 °FSunny.No wind76%29.99 "Hg10 mi
6:33 PM43 °FSunny.No wind76%29.99 "Hg10 mi
6:14 PM43 °FSunny.No wind76%29.99 "Hg10 mi
5:53 PM45 °FSunny.No wind76%30.00 "Hg10 mi
5:33 PM45 °FSunny.No wind76%30.00 "Hg10 mi
5:14 PM43 °FSunny.No wind76%30.00 "Hg10 mi
4:53 PM43 °FSunny.No wind76%30.00 "Hg10 mi
4:14 PM43 °FSunny.No wind76%30.00 "Hg10 mi
3:53 PM45 °FSunny.No wind76%30.01 "Hg10 mi
3:33 PM45 °FSunny.No wind76%30.01 "Hg10 mi
3:14 PM43 °FSunny.No wind81%30.01 "Hg10 mi
2:53 PM45 °FSunny.No wind76%30.01 "Hg10 mi
2:33 PM45 °FSunny.No wind76%30.02 "Hg10 mi
2:13 PM43 °FSunny.No wind81%30.03 "Hg10 mi
1:53 PM43 °FSunny.No wind76%30.03 "Hg10 mi
1:34 PM41 °FSunny.No wind81%30.03 "Hg10 mi
1:13 PM41 °FSunny.No wind81%30.04 "Hg10 mi
12:53 PM41 °FSunny.No wind81%30.04 "Hg10 mi
12:34 PM39 °FSunny.No wind87%30.05 "Hg10 mi
12:13 PM41 °FSunny.No wind81%30.05 "Hg10 mi
11:53 AM45 °FSunny.No wind76%30.05 "Hg10 mi
11:34 AM46 °FSunny.No wind71%30.06 "Hg10 mi
11:13 AM45 °FSunny.No wind76%30.05 "Hg10 mi
10:53 AM39 °FSunny.No wind81%30.06 "Hg10 mi
10:34 AM37 °FSunny.No wind87%30.06 "Hg10 mi
10:13 AM37 °FSunny.No wind87%30.05 "Hg10 mi
9:53 AM39 °FSunny.No wind81%30.06 "Hg10 mi
9:34 AM37 °FSunny.No wind87%30.06 "Hg10 mi
9:13 AM39 °FSunny.No wind87%30.06 "Hg10 mi
Weather by CustomWeather, © 2014

See weather overview